Weather Roundup
Issued by NWS

Home | Current Version | Previous Version | Text Only | Print | Product List | Glossary On
Versions: 1 2 3 4 5 6 7 8 9 10 11 12 13 14 15 16 17 18 19 20 21 22 23 24 25 26 27 28 29 30 31 32 33 34 35 36 37 38 39 40 41 42 43 44 45 46 47 48 49 50
769
NZUS93 KARX 171659
HRRWXR

CURRENT HOURLY OBSERVATIONS ACROSS
MUCH OF THE UPPER MISSISSIPPI VALLEY
NATIONAL WEATHER SERVICE LA CROSSE WI
1200 PM CDT TUE OCT 17 2017


...SOUTHEAST MINNESOTA...


CITY           SKY/WX    TMP DP  RH WIND       PRES   REMARKS
ROCHESTER      SUNNY     64  46  52 VRB6      30.07S
ROCHESTER/MAYO FAIR      64  42  44 W3        30.06S
WINONA         SUNNY     63  43  48 CALM      30.07S
AUSTIN         SUNNY     63  43  48 SW8       30.06S
ALBERT LEA     SUNNY     66  45  45 CALM      30.06S
DODGE CENTER   SUNNY     64  41  42 SW8       30.05F
PRESTON        SUNNY     62  42  49 SW6       30.08S
OWATONNA       SUNNY     64  45  48 SW5       30.05S
FARIBAULT      SUNNY     63  45  51 S7        30.04S
$$

...ELSEWHERE IN MINNESOTA...


CITY           SKY/WX    TMP DP  RH WIND       PRES   REMARKS
MINNEAPOLIS    MOSUNNY   61  46  57 VRB3      30.02F
INTNL FALLS    SUNNY     62  36  37 S6        29.90F
DULUTH         MOSUNNY   65  39  38 S9        29.96F
RED WING       SUNNY     61  43  51 SE5       30.03S
REDWOOD FALLS  SUNNY     65  40  39 SW5       30.01F
MANKATO        SUNNY     63  43  48 VRB7      30.04S
WORTHINGTON    SUNNY     67  41  38 SW8       30.05S
FAIRMONT       SUNNY     67  44  43 MISG      30.05S
$$

...SOUTHWEST WISCONSIN...


CITY           SKY/WX    TMP DP  RH WIND       PRES   REMARKS
LA CROSSE      SUNNY     62  45  53 VRB6      30.08S
PRAIRIE DU CHI SUNNY     63  42  45 SW8       30.11S
BOSCOBEL       SUNNY     65  43  44 SW7       30.11S
LONE ROCK      SUNNY     64  46  52 SW9       30.11S
PLATTEVILLE    SUNNY     63  44  50 W14       30.14S
FORT MC COY    SUNNY     61  45  55 W6        30.08S
MAUSTON-NEW LI SUNNY     62  45  53 SW6       30.07F
VIROQUA        FAIR      60  45  57 S9        30.09F
WIS DELLS      SUNNY     60  43  52 SW10      30.09S
$$

...ELSEWHERE IN WISCONSIN...


CITY           SKY/WX    TMP DP  RH WIND       PRES   REMARKS
MILWAUKEE      MOSUNNY   67  42  40 SW16G25   30.12S
MADISON        MOSUNNY   63  44  50 SW8       30.11S
GREEN BAY      SUNNY     62  47  57 SW7       30.06S
EAU CLAIRE     NOT AVBL
BLACK RVR FLS  FAIR      62  41  46 CALM      30.07S
MEDFORD        SUNNY     60  43  53 CALM      30.04S
WAUSAU         SUNNY     60  44  55 VRB3      30.04S
WIS RAPIDS     SUNNY     62  45  53 SW8       30.07F
MARSHFIELD     SUNNY     62  43  49 SW8       30.05S
RICE LAKE      SUNNY     61  44  53 SE3       30.04S
$$

...NORTHEAST IOWA...


CITY           SKY/WX    TMP DP  RH WIND       PRES   REMARKS
WATERLOO       SUNNY     63  43  48 S12       30.10F
DUBUQUE        SUNNY     64  44  48 SW18      30.13F
DECORAH        SUNNY     63  45  51 VRB3G14   30.08S
MASON CITY     SUNNY     63  44  50 SW7       30.08F
CHARLES CITY   SUNNY     64  41  42 VRB7G13   30.09S
OELWEIN        SUNNY     64  45  48 W12       30.11S
$$

...ELSEWHERE IN IOWA...


CITY           SKY/WX    TMP DP  RH WIND       PRES   REMARKS
DES MOINES     MOSUNNY   67  42  40 SW14      30.12F
IOWA CITY      LGT RAIN  68  42  38 SW15G24   30.17F
FORT DODGE     SUNNY     64  46  52 S10       30.08F
MARSHALLTOWN   SUNNY     65  45  48 SW14      30.11F
CEDAR RAPIDS   SUNNY     67  42  40 SW15      30.14F
$$

...NORTHERN ILLINOIS...


CITY           SKY/WX    TMP DP  RH WIND       PRES   REMARKS
CHICAGO-OHARE  MOSUNNY   65  42  43 SW20G26   30.18F
CHICAGO-MIDWAY MOSUNNY   65  44  46 SW17G26   30.20S
MOLINE         SUNNY     67  43  41 SW15G24   30.18F
ROCKFORD       MOSUNNY   68  46  45 SW15      30.17F
PEORIA         SUNNY    N/A N/A N/A SW18G30   30.25F
$$

NOTE: "FAIR" INDICATES FEW OR NO CLOUDS BELOW 12,000 FEET WITH NO
SIGNIFICANT WEATHER AND/OR OBSTRUCTIONS TO VISIBILITY. WIND
SPEEDS ARE IN MILES-PER-HOUR.




USA.gov is the U.S. government's official web portal to all federal, state and local government web resources and services.